When you browse on this site, cookies collect data to enhance your experience and personalize the content and advertising you see.
Visit our Privacy Policy to learn more. By continuing to use the site, you agree to this use of cookies and data.
  • In Switzerland
  • List of Countries
  • For 7 days
  • Water Temperature
  • Weather Map
  • Weather Widgets
  • user-avatar
    Login

    Hourly Weather Yanliang

    Today, 28 May, Thursday

    Time Temperature Precipitation Wind Pressure Humidity
    00:00 +21°C° 0 mm 2 mps 724 mmHg 30%
    01:00 +21°C° 0 mm 2 mps 724 mmHg 31%
    02:00 +20°C° 0 mm 2 mps 724 mmHg 33%
    03:00 +20°C° 0 mm 2 mps 724 mmHg 35%
    04:00 +19°C° 0 mm 2 mps 724 mmHg 37%
    05:00 +21°C° 0 mm 2 mps 724 mmHg 34%
    06:00 +24°C° 0 mm 2 mps 724 mmHg 32%
    07:00 +26°C° 0 mm 2 mps 724 mmHg 29%
    08:00 +28°C° 0 mm 2 mps 724 mmHg 26%
    09:00 +30°C° 0 mm 2 mps 724 mmHg 23%
    10:00 +32°C° 0 mm 2 mps 724 mmHg 19%
    11:00 +34°C° 0 mm 3 mps 724 mmHg 17%
    12:00 +35°C° 0 mm 3 mps 723 mmHg 14%
    13:00 +36°C° 0 mm 2 mps 722 mmHg 12%
    14:00 +36°C° 0 mm 2 mps 722 mmHg 12%
    15:00 +37°C° 0 mm 2 mps 722 mmHg 12%
    16:00 +37°C° 0 mm 2 mps 721 mmHg 11%
    17:00 +34°C° 0 mm 2 mps 721 mmHg 15%
    18:00 +31°C° 0 mm 2 mps 721 mmHg 18%
    19:00 +29°C° 0 mm 2 mps 721 mmHg 21%
    20:00 +28°C° 0 mm 2 mps 721 mmHg 24%
    21:00 +27°C° 0 mm 2 mps 722 mmHg 28%
    22:00 +26°C° 0 mm 2 mps 722 mmHg 31%
    23:00 +25°C° 0 mm 1 mps 722 mmHg 33%

    Tomorrow, 29 May, Friday

    Time Temperature Precipitation Wind Pressure Humidity
    00:00 +25°C° 0 mm 1 mps 722 mmHg 35%
    01:00 +24°C° 0 mm 1 mps 721 mmHg 36%
    02:00 +23°C° 0 mm 1 mps 721 mmHg 38%
    03:00 +22°C° 0 mm 1 mps 721 mmHg 40%
    04:00 +20°C° 0 mm 0 mps 721 mmHg 42%
    05:00 +21°C° 0 mm 0 mps 721 mmHg 39%
    06:00 +23°C° 0 mm 0 mps 721 mmHg 35%
    07:00 +25°C° 0 mm 0 mps 721 mmHg 32%
    08:00 +29°C° 0 mm 1 mps 721 mmHg 29%
    09:00 +31°C° 0 mm 1 mps 721 mmHg 26%
    10:00 +34°C° 0 mm 2 mps 721 mmHg 23%
    11:00 +35°C° 0 mm 2 mps 720 mmHg 20%
    12:00 +37°C° 0 mm 2 mps 720 mmHg 17%
    13:00 +38°C° 0 mm 2 mps 719 mmHg 14%
    14:00 +38°C° 0 mm 2 mps 719 mmHg 14%
    15:00 +37°C° 0 mm 1 mps 718 mmHg 13%
    16:00 +37°C° 0 mm 1 mps 718 mmHg 12%
    17:00 +35°C° 0 mm 1 mps 718 mmHg 15%
    18:00 +34°C° 0 mm 2 mps 719 mmHg 19%
    19:00 +31°C° 0 mm 2 mps 720 mmHg 22%
    20:00 +29°C° 0 mm 3 mps 720 mmHg 29%
    21:00 +27°C° 0 mm 4 mps 721 mmHg 35%
    22:00 +26°C° 0 mm 4 mps 721 mmHg 42%
    23:00 +25°C° 0 mm 4 mps 721 mmHg 48%

    Day after tomorrow, 30 May, Saturday

    Time Temperature Precipitation Wind Pressure Humidity
    00:00 +23°C° 0 mm 4 mps 722 mmHg 54%
    01:00 +22°C° 0 mm 3 mps 722 mmHg 60%
    02:00 +23°C° 0 mm 2 mps 722 mmHg 63%
    03:00 +22°C° 0 mm 1 mps 722 mmHg 65%
    04:00 +22°C° 0 mm 1 mps 722 mmHg 68%
    05:00 +23°C° 0 mm 1 mps 723 mmHg 63%
    06:00 +24°C° 0 mm 1 mps 723 mmHg 58%
    07:00 +26°C° 0 mm 1 mps 724 mmHg 53%
    08:00 +28°C° 0 mm 1 mps 724 mmHg 45%
    09:00 +30°C° 0 mm 1 mps 724 mmHg 38%
    10:00 +32°C° 0 mm 2 mps 724 mmHg 30%
    11:00 +34°C° 0 mm 2 mps 723 mmHg 27%
    12:00 +35°C° 0 mm 2 mps 723 mmHg 24%
    13:00 +36°C° 0 mm 2 mps 722 mmHg 20%
    14:00 +37°C° 0 mm 2 mps 721 mmHg 19%
    15:00 +36°C° 0 mm 1 mps 721 mmHg 18%
    16:00 +36°C° 0 mm 1 mps 720 mmHg 17%
    17:00 +34°C° 0.1 mm 1 mps 721 mmHg 20%
    18:00 +32°C° 0.1 mm 1 mps 721 mmHg 23%
    19:00 +30°C° 0.1 mm 1 mps 721 mmHg 27%
    20:00 +30°C° 0.1 mm 1 mps 721 mmHg 30%
    21:00 +29°C° 0.1 mm 1 mps 722 mmHg 32%
    22:00 +28°C° 0.1 mm 1 mps 723 mmHg 35%
    23:00 +28°C° 0.1 mm 1 mps 723 mmHg 38%

    31 May, Sunday

    Time Temperature Precipitation Wind Pressure Humidity
    00:00 +27°C° 0.1 mm 2 mps 723 mmHg 41%
    01:00 +27°C° 0.1 mm 2 mps 723 mmHg 44%
    02:00 +26°C° 0.4 mm 2 mps 724 mmHg 48%
    03:00 +25°C° 0.4 mm 2 mps 724 mmHg 53%
    04:00 +24°C° 0.4 mm 1 mps 724 mmHg 58%
    05:00 +25°C° 0 mm 1 mps 725 mmHg 54%
    06:00 +26°C° 0 mm 1 mps 725 mmHg 49%
    07:00 +27°C° 0 mm 1 mps 726 mmHg 44%
    08:00 +29°C° 0 mm 1 mps 726 mmHg 37%
    09:00 +30°C° 0 mm 1 mps 726 mmHg 29%
    10:00 +31°C° 0 mm 2 mps 726 mmHg 22%
    11:00 +34°C° 0 mm 2 mps 725 mmHg 19%
    12:00 +35°C° 0 mm 2 mps 725 mmHg 16%
    13:00 +36°C° 0 mm 2 mps 724 mmHg 14%
    14:00 +37°C° 0 mm 2 mps 723 mmHg 13%
    15:00 +37°C° 0 mm 2 mps 723 mmHg 13%
    16:00 +37°C° 0 mm 2 mps 722 mmHg 12%
    17:00 +35°C° 0 mm 2 mps 722 mmHg 14%
    18:00 +33°C° 0 mm 3 mps 722 mmHg 15%
    19:00 +30°C° 0 mm 3 mps 722 mmHg 16%
    20:00 +29°C° 0 mm 3 mps 723 mmHg 19%
    21:00 +28°C° 0 mm 2 mps 723 mmHg 21%
    22:00 +27°C° 0 mm 2 mps 724 mmHg 23%
    23:00 +26°C° 0 mm 2 mps 724 mmHg 23%

    1 June, Monday

    Time Temperature Precipitation Wind Pressure Humidity
    00:00 +25°C° 0 mm 2 mps 723 mmHg 22%
    01:00 +25°C° 0 mm 2 mps 723 mmHg 22%
    02:00 +24°C° 0 mm 2 mps 723 mmHg 21%
    03:00 +24°C° 0 mm 2 mps 723 mmHg 21%
    04:00 +23°C° 0 mm 2 mps 723 mmHg 20%
    05:00 +25°C° 0 mm 2 mps 723 mmHg 19%
    06:00 +27°C° 0 mm 2 mps 724 mmHg 18%
    07:00 +28°C° 0 mm 2 mps 724 mmHg 16%
    08:00 +31°C° 0 mm 2 mps 724 mmHg 17%
    09:00 +34°C° 0 mm 2 mps 724 mmHg 18%
    10:00 +35°C° 0 mm 1 mps 723 mmHg 19%
    11:00 +37°C° 0 mm 1 mps 723 mmHg 18%
    12:00 +39°C° 0 mm 1 mps 722 mmHg 16%
    13:00 +41°C° 0 mm 1 mps 721 mmHg 15%
    14:00 +41°C° 0 mm 2 mps 721 mmHg 14%
    15:00 +41°C° 0 mm 2 mps 720 mmHg 13%
    16:00 +41°C° 0 mm 2 mps 720 mmHg 11%
    17:00 +39°C° 0 mm 2 mps 720 mmHg 14%
    18:00 +37°C° 0 mm 2 mps 720 mmHg 16%
    19:00 +36°C° 0 mm 2 mps 720 mmHg 18%
    20:00 +34°C° 0 mm 2 mps 721 mmHg 22%
    21:00 +32°C° 0 mm 2 mps 721 mmHg 26%
    22:00 +31°C° 0 mm 2 mps 722 mmHg 29%
    23:00 +31°C° 0.1 mm 3 mps 722 mmHg 33%

    2 June, Tuesday

    Time Temperature Precipitation Wind Pressure Humidity
    00:00 +30°C° 0.1 mm 3 mps 722 mmHg 38%
    01:00 +29°C° 0.1 mm 4 mps 721 mmHg 42%
    02:00 +28°C° 0.1 mm 4 mps 722 mmHg 46%
    03:00 +28°C° 0.1 mm 4 mps 722 mmHg 51%
    04:00 +27°C° 0.1 mm 3 mps 722 mmHg 56%
    05:00 +27°C° 0 mm 3 mps 722 mmHg 53%
    06:00 +28°C° 0 mm 3 mps 723 mmHg 49%
    07:00 +29°C° 0 mm 3 mps 723 mmHg 46%
    08:00 +30°C° 0 mm 3 mps 723 mmHg 41%
    09:00 +33°C° 0 mm 3 mps 723 mmHg 36%
    10:00 +34°C° 0 mm 3 mps 724 mmHg 32%
    11:00 +35°C° 0 mm 3 mps 723 mmHg 28%
    12:00 +36°C° 0 mm 3 mps 723 mmHg 25%
    13:00 +38°C° 0 mm 3 mps 722 mmHg 21%
    14:00 +37°C° 0 mm 3 mps 722 mmHg 22%
    15:00 +37°C° 0 mm 4 mps 721 mmHg 22%
    16:00 +36°C° 0 mm 4 mps 721 mmHg 23%
    17:00 +35°C° 0 mm 3 mps 721 mmHg 25%
    18:00 +33°C° 0 mm 3 mps 721 mmHg 27%
    19:00 +31°C° 0 mm 2 mps 721 mmHg 29%
    20:00 +30°C° 0 mm 2 mps 721 mmHg 32%
    21:00 +29°C° 0 mm 2 mps 721 mmHg 35%
    22:00 +29°C° 0 mm 2 mps 721 mmHg 37%
    23:00 +28°C° 0 mm 2 mps 721 mmHg 38%
    Show more